[ hide orbit diagram ]
For accurate long-term ephemerides, please instead use our Horizons system.This orbit viewer was implemented using two-body methods, and hence should not be used for determining accurate long-term trajectories (over several years or decades) or planetary encounter circumstances.
Orbital Elements at Epoch 2459200.5 (2020-Dec-17.0) TDB
Reference: JPL 25 (heliocentric ecliptic J2000)
Element | Value | Uncertainty (1-sigma) | Units |
e | .1020912440894348 | 4.268e-08 | |
a | 2.579087478406359 | 1.2921e-08 | au |
q | 2.315785229120371 | 1.146e-07 | au |
i | 7.291978869903952 | 4.6521e-06 | deg |
node | 215.2563877736628 | 2.7167e-05 | deg |
peri | 300.8836766923275 | 3.6168e-05 | deg |
M | 71.53960390933041 | 2.0717e-05 | deg |
tp | 2458899.863596879400 (2020-Feb-20.36359688) | 8.778e-05 | TDB |
period | 1512.855805863643 4.14 | 1.1369e-05 3.113e-08 | d yr |
n | .2379605502419228 | 1.7883e-09 | deg/d |
Q | 2.842389727692348 | 1.424e-08 | au |
|
| | Orbit Determination Parameters
Additional Information
|
[ show covariance matrix ]
Physical Parameter Table
Parameter |
Symbol |
Value |
Units |
Sigma |
Reference |
Notes |
absolute magnitude |
H |
15.32 |
|
n/a |
E2021B10 |
|
|
87097 Lomaki | Discovered 2000 June 7 by M. Tichy and J. Ticha at Klet. |
Lomaki is one of smaller pueblos surrounding the main Wupatki pueblo. Its ruins preserve clues to geologic history, ecological change and ancient human agricultural settlement in desert northern Arizona. Lomaki pueblo was built on the edge of a canyon in the 1190s. |
NOTE: some special characters may not display properly (any characters within {} are an attempt to place the proper accent above a character) |
Reference: MPC batch dated 2014-05-14 | Last Updated: 2014-05-15 |
|
[ hide close-approach data ]
Close-Approach Data ...sorted by Date/Time (TDB)
|
Date/Time (TDB) |
Time Uncertainty (days_HH:MM) |
Body |
Nominal Distance (au) |
Minimum Distance (au) |
Maximum Distance (au) |
V-relative (km/s) |
V-infinity (km/s) |
JD (TDB) |
Time Uncertainty (minutes) |
Semi-major axis (km) |
Semi-minor axis (km) |
range-LOV angle (deg) |
N-sigma |
BP |
Orbit Ref. |
Reference |
Modified |
2035-Sep-26 20:37 |
< 00:01 |
Psych |
0.0184367351258704 |
0.0184308078170208 |
0.0184426624401311 |
4.1151318371171 |
4.11513167764474 |
2464597.359287546 |
0.764564183258443 |
295.72353284699 |
43.163798904586 |
-3.0666799328548 |
9911.35094877025 |
T |
25 |
CATAB v2.0f-lin.ifort 2020-Nov-12 20:55:08 |
2020-Nov-12 20:55 |
|
|